Location: Newark
(45.9925°N, 0.1936°E)
Time: 20:14:27
(UTC+00:00)

Envisat - Visible Passes

Search period start: 19 August 2019 00:00
Search period end: 29 August 2019 00:00
Orbit: 764 x 766 km, 98.1° (Epoch: 19 August)

Date Brightness Start Highest point End Pass type
(mag) Time Alt. Az. Time Alt. Az. Time Alt. Az.
21 Aug 6.0 19:40:43 10° WSW 19:43:27 14° W 19:46:11 10° NW visible
24 Aug 5.8 19:28:38 10° SW 19:32:04 18° W 19:35:31 10° NW visible
26 Aug 6.5 19:57:26 10° W 19:57:56 10° W 19:58:27 10° W visible
27 Aug 5.7 19:16:45 10° SW 19:20:41 22° W 19:24:40 10° NW visible
